Погода в Просянке

Россия / Ставропольский край     45°07′20″N   42°50′54″E
темп.,
°C
ветер,
м/с
пор.,
м/с
влажн.,
%
обл.,
%
осадки,
мм/ч
давл.,
гПа
погр.,
м
2 августа, пн
пн200:00+24в33513 0.1 101032
03:00+23ююв22560 0.1 101014
06:00+23ююв11560 0.0 101116
09:00+30в23410 0.0 1011741
12:00+33в333060 0.0 10101754
15:00+34в322862 0.0 10092164
18:00+33вюв23327 0.0 1009954
21:00+28ююв113916 0.0 100911
3 августа, вт
вт300:00+25ююз22470 0.0 101011
03:00+23ююз22545 0.1 101013
06:00+23ююз23630 0.0 101250
09:00+30ююз11440 0.0 1011559
12:00+35ссв12300 0.0 10112246
15:00+36всв32200 0.0 10093055
18:00+34вюв34210 0.0 1009172
21:00+27зюз11270 0.0 101011
4 августа, ср
ср400:00+26ю22340 0.0 101114
03:00+24юз22490 0.0 101119
06:00+23зюз25580 0.0 1012114
09:00+30з45380 0.0 1012664
12:00+35сз54293 0.0 10121720
15:00+36сз332512 0.0 10113294
18:00+32ссв473338 0.0 1011304
21:00+27с234410 0.0 101335
5 августа, чт
чт500:00+24сз225267 0.1 101312
03:00+21юз227796 1.3 101422
06:00+22з1173100 0.2 101436
09:00+27с335196 0.3 1014537
12:00+33св44320 0.0 10131655
15:00+35всв43260 0.0 10112567
18:00+33в342820 0.0 1011808
21:00+27всв223833 0.0 101123
6 августа, пт
пт600:00+25в38433 0.0 1011155
03:00+25в39420 0.0 1010197
06:00+24вюв310492 0.0 1010251
09:00+30вюв69314 0.0 1010808
12:00+35вюв7923100 0.0 10081874
15:00+36в7821100 0.0 10062564
18:00+34в5824100 0.0 1006623
21:00+29вюв41229100 0.0 1007274